Location: Waltman Observatory
(32.5145°N, 90.4450°W)
Time: 21:15:45
(UTC-05:00)

Amateur Radio Satellites - All Passes

Search period start: 19 August 2017 20:45
Search period end: 20 August 2017 20:45
Location: Waltman Observatory, 32.5145°N, 90.4450°W

Satellite Date Start Highest point End Downlink Frequencies (MHz)
Time Altitude Azimuth
ZACube-1 19 Aug 21:10:03 21:14:04 46° 261° (W) 21:18:04 437.345
EO-88 19 Aug 21:26:17 21:28:31 16° 70° (ENE) 21:30:46 145.990 - 145.960
AO-73 19 Aug 21:32:36 21:36:10 28° 263° (W) 21:39:45 145.935
DELFI C3 19 Aug 21:57:26 22:01:25 84° 74° (ENE) 22:05:25 145.870
UNISAT 6 19 Aug 21:58:17 22:01:00 16° 95° (E) 22:03:45 437.425
Max Valier Satellite 19 Aug 22:01:20 22:04:56 68° 77° (ENE) 22:08:34 145.860
STRAND 1 19 Aug 22:04:39 22:05:54 11° 296° (WNW) 22:07:09 437.568
Oscar 11 19 Aug 22:21:48 22:23:02 11° 268° (W) 22:24:16 .
PRISM 19 Aug 22:27:43 22:30:59 23° 97° (E) 22:34:13 437.425
TIGRISAT 19 Aug 22:32:38 22:36:40 38° 99° (E) 22:40:46 435.000
RS-15 19 Aug 22:35:13 22:46:06 45° 253° (WSW) 22:56:28 29.354- 29.394
FO-29 19 Aug 22:40:29 22:45:58 73° 285° (WNW) 22:51:08 435.910
PCSat 19 Aug 22:43:59 22:49:14 53° 111° (ESE) 22:54:29 145.827
EO-88 19 Aug 22:59:03 23:01:58 23° 264° (W) 23:04:53 145.990 - 145.960
LO-87 19 Aug 22:59:27 23:02:36 29° 74° (ENE) 23:05:45 145.935 - 145.965
ESTCUBE 1 19 Aug 23:07:33 23:11:18 27° 71° (ENE) 23:15:06 437.505/2401.250
M-CUBED/EXP-1 PRIME 19 Aug 23:32:36 23:34:30 13° 96° (E) 23:36:21 437.505
AIST 2D 19 Aug 23:32:38 23:35:15 19° 96° (E) 23:37:50 435.315
UNISAT 6 19 Aug 23:33:52 23:37:44 33° 287° (WNW) 23:41:40 437.425
SPROUT 19 Aug 23:39:17 23:41:18 13° 68° (ENE) 23:43:18 437.525
SO-50 19 Aug 23:46:39 23:51:07 63° 300° (WNW) 23:55:36 436.795
PRISM 20 Aug 00:02:57 00:06:06 21° 290° (WNW) 00:09:12 437.425
TIGRISAT 20 Aug 00:10:40 00:13:01 14° 291° (WNW) 00:15:22 435.000
NANOSAT C BR1 20 Aug 00:21:27 00:25:05 28° 98° (E) 00:28:42 145.865
POLYITAN 1 20 Aug 00:24:45 00:28:37 35° 99° (E) 00:32:28 437.675
PCSat 20 Aug 00:29:12 00:32:54 18° 307° (NW) 00:36:37 145.827
LO-87 20 Aug 00:34:42 00:36:03 12° 266° (W) 00:37:24 145.935 - 145.965
QB50P2 20 Aug 00:39:33 00:43:44 62° 101° (ESE) 00:47:54 145.880/145.840
EO-79 20 Aug 00:40:43 00:44:52 57° 100° (E) 00:49:00 145.935-145.965
ESTCUBE 1 20 Aug 00:44:34 00:48:01 22° 264° (W) 00:51:29 437.505/2401.250
NO-84 20 Aug 00:45:42 00:47:58 20° 126° (SE) 00:50:11 435.350 FM
UKube-1 20 Aug 00:45:56 00:46:37 10° 66° (ENE) 00:47:17 .
VELOX 1 20 Aug 00:55:19 00:59:47 89° 233° (SW) 01:04:16 145.980
DX 1 20 Aug 01:01:45 01:05:25 27° 71° (ENE) 01:09:06 434.975-435.025
M-CUBED/EXP-1 PRIME 20 Aug 01:05:04 01:09:07 40° 292° (WNW) 01:12:52 437.505
AIST 2D 20 Aug 01:05:49 01:08:16 18° 288° (WNW) 01:10:44 435.315
DUCHIFAT 1 20 Aug 01:12:13 01:16:23 72° 283° (WNW) 01:20:32 145.980
SPROUT 20 Aug 01:12:45 01:16:47 41° 261° (W) 01:20:49 437.525
BUGSAT 1 20 Aug 01:17:39 01:21:07 28° 98° (E) 01:24:36 437.445
50 SAT 20 Aug 01:32:14 01:35:38 81° 259° (W) 01:39:04 437.505
Oscar 19 20 Aug 01:35:18 01:39:09 21° 95° (E) 01:42:59 437.125/150
NANOSAT C BR1 20 Aug 01:57:42 02:00:32 18° 290° (WNW) 02:03:23 145.865
POLYITAN 1 20 Aug 02:01:41 02:04:03 15° 292° (WNW) 02:06:25 437.675
YUBILEINY 20 Aug 02:07:34 02:12:22 16° 68° (ENE) 02:17:10 435.215
UKube-1 20 Aug 02:17:51 02:22:06 56° 259° (W) 02:26:22 .
BEESAT 20 Aug 02:22:37 02:25:09 15° 66° (ENE) 02:27:42 436.000
NO-84 20 Aug 02:23:12 02:25:16 17° 318° (NW) 02:27:17 435.350 FM
DX 1 20 Aug 02:38:14 02:41:31 21° 264° (W) 02:44:49 434.975-435.025
Gurwin Techsat 1B 20 Aug 02:38:17 02:43:32 59° 101° (E) 02:48:45 435.225
BUGSAT 1 20 Aug 02:53:40 02:56:13 17° 291° (WNW) 02:58:47 437.445
ITUPSAT 1 20 Aug 02:54:19 02:58:30 32° 71° (ENE) 03:02:41 437.325
AO-7 20 Aug 03:02:57 03:07:33 16° 94° (E) 03:12:07 .
Oscar 19 20 Aug 03:13:44 03:18:30 37° 289° (WNW) 03:23:15 437.125/150
MOZHAYETS 4 20 Aug 03:51:03 03:55:35 70° 259° (W) 04:00:07
BEESAT 20 Aug 03:57:55 04:02:28 47° 260° (W) 04:07:04 436.000
YUBILEINY 20 Aug 04:01:26 04:10:09 85° 265° (W) 04:18:51 435.215
CUBESAT XI-V 20 Aug 04:08:34 04:12:37 31° 72° (ENE) 04:16:42 437.345
KKS-1 20 Aug 04:12:02 04:14:26 14° 67° (ENE) 04:16:50 437.445
Gurwin Techsat 1B 20 Aug 04:20:09 04:22:54 14° 295° (WNW) 04:25:39 435.225
BEESAT 3 20 Aug 04:27:30 04:29:52 15° 109° (ESE) 04:32:16 437.485
ITAMSAT 1 20 Aug 04:30:34 04:35:44 74° 102° (ESE) 04:40:54 435.822/435.867
ITUPSAT 1 20 Aug 04:32:47 04:36:18 21° 264° (W) 04:39:49 437.325
AO-7 20 Aug 04:52:39 05:01:00 84° 288° (WNW) 05:09:17 .
STARS 20 Aug 04:53:02 04:55:47 16° 68° (ENE) 04:58:31 437.465
AO-85 20 Aug 05:17:07 05:20:47 36° 114° (ESE) 05:24:24 145.980
KKS-1 20 Aug 05:46:21 05:50:35 42° 260° (W) 05:54:50 437.445
CUBESAT XI-V 20 Aug 05:46:35 05:49:58 20° 265° (W) 05:53:23 437.345
LilacSat-2 20 Aug 06:01:43 06:03:01 11° 93° (E) 06:04:17 437.200
YUBILEINY 20 Aug 06:02:30 06:05:32 12° 282° (WNW) 06:08:35 435.215
BEESAT 3 20 Aug 06:03:30 06:07:07 33° 303° (WNW) 06:10:47 437.485
XW-2D 20 Aug 06:06:39 06:08:26 13° 94° (E) 06:10:13 145.860 - 145.880
DOVE 4 20 Aug 06:07:02 06:11:24 49° 99° (E) 06:15:31 437.250
ITAMSAT 1 20 Aug 06:13:15 06:14:30 11° 297° (WNW) 06:15:46 435.822/435.867
BEESAT 2 20 Aug 06:14:36 06:18:34 87° 297° (WNW) 06:22:37 435.950
XW-2B 20 Aug 06:16:58 06:19:32 17° 95° (E) 06:22:05 145.730 - 145.750
NUDT-PHONESAT 20 Aug 06:17:08 06:18:26 11° 93° (E) 06:19:43 437.300
STARS 20 Aug 06:27:45 06:31:48 35° 261° (W) 06:35:50 437.465
CUTE-I 20 Aug 06:33:17 06:37:43 26° 97° (E) 06:42:06 437.470
XW-2C 20 Aug 06:35:14 06:38:40 30° 98° (E) 06:42:05 145.795 - 145.815
XW-2F 20 Aug 06:47:57 06:51:37 42° 99° (E) 06:55:16 145.980 - 146.000
AO-7 20 Aug 06:48:10 06:52:31 15° 305° (NW) 06:56:52 .
AO-85 20 Aug 06:59:05 07:01:16 14° 308° (NW) 07:03:27 145.980
KAITUO 1B 20 Aug 07:14:34 07:18:23 81° 103° (ESE) 07:22:10 145.475/437.950
HO-68 20 Aug 07:22:52 07:28:50 28° 97° (E) 07:34:47 435.675
STRAND 1 20 Aug 07:33:28 07:38:31 64° 75° (ENE) 07:43:34 437.568
LilacSat-2 20 Aug 07:33:48 07:37:22 36° 286° (WNW) 07:40:55 437.200
PCSat 20 Aug 07:37:32 07:41:06 17° 53° (NE) 07:44:38 145.827
SEEDS 20 Aug 07:38:54 07:41:46 18° 95° (E) 07:44:37 437.485
XW-2D 20 Aug 07:39:13 07:42:39 31° 286° (WNW) 07:46:04 145.860 - 145.880
DOVE 4 20 Aug 07:47:05 07:48:30 11° 295° (WNW) 07:49:54 437.250
NUDT-PHONESAT 20 Aug 07:48:58 07:52:22 33° 286° (WNW) 07:55:45 437.300
XW-2B 20 Aug 07:50:30 07:53:38 24° 288° (WNW) 07:56:44 145.730 - 145.750
XW-2C 20 Aug 08:10:31 08:12:31 14° 291° (WNW) 08:14:32 145.795 - 145.815
CUTE-I 20 Aug 08:13:04 08:17:40 30° 290° (WNW) 08:22:14 437.470
UWE-3 20 Aug 08:21:04 08:24:40 26° 97° (E) 08:28:20 435.000/436.395/437.385
SO-50 20 Aug 08:22:18 08:26:23 31° 56° (NE) 08:30:30 436.795
CUTE 1.7 + AOD 2 20 Aug 08:23:49 08:28:06 72° 284° (WNW) 08:32:22 437.475
CUBEBUG 2 20 Aug 08:26:07 08:30:16 56° 100° (E) 08:34:31 437.445
AAUSAT CUBESAT 2 20 Aug 08:26:18 08:29:54 28° 97° (E) 08:33:29 437.432
Tancredo 1 20 Aug 08:27:15 08:29:34 21° 129° (SE) 08:31:53 437.200
Oscar 11 20 Aug 08:36:09 08:37:59 12° 93° (E) 08:39:49 .
O/OREOS (USA 219) 20 Aug 08:45:54 08:47:44 12° 99° (E) 08:49:34 437.305
FO-29 20 Aug 08:46:00 08:52:39 34° 69° (ENE) 08:58:51 435.910
NO-84 20 Aug 08:58:54 09:01:23 21° 43° (NE) 09:04:01 435.350 FM
ZACube-1 20 Aug 09:02:17 09:06:23 43° 99° (E) 09:10:34 437.345
XW-2A 20 Aug 09:03:34 09:06:40 33° 285° (WNW) 09:09:46 145.665 - 145.685
HO-68 20 Aug 09:09:54 09:16:38 45° 291° (WNW) 09:23:20 435.675
SEEDS 20 Aug 09:13:44 09:17:25 29° 288° (WNW) 09:21:05 437.485
STRAND 1 20 Aug 09:16:32 09:18:01 11° 268° (W) 09:19:30 437.568
PCSat 20 Aug 09:19:32 09:24:50 56° 248° (WSW) 09:30:06 145.827
ISS 20 Aug 09:21:47 09:24:21 21° 128° (SE) 09:26:54 437.550
AO-73 20 Aug 09:23:49 09:28:07 72° 101° (E) 09:32:30 145.935
TIGRISAT 20 Aug 09:27:37 09:30:44 20° 70° (ENE) 09:33:49 435.000
nSIGHT-1 20 Aug 09:30:50 09:33:42 29° 130° (SE) 09:36:35 .
DELFI C3 20 Aug 09:40:18 09:42:30 14° 94° (E) 09:44:41 145.870
UWE-3 20 Aug 09:57:47 10:00:56 20° 289° (WNW) 10:04:07 435.000/436.395/437.385
AAUSAT CUBESAT 2 20 Aug 10:02:15 10:05:06 18° 290° (WNW) 10:07:57 437.432
Tancredo 1 20 Aug 10:02:26 10:04:41 20° 323° (NW) 10:06:58 437.200
SO-50 20 Aug 10:03:08 10:06:38 22° 250° (WSW) 10:10:09 436.795
Oscar 11 20 Aug 10:10:08 10:14:15 43° 286° (WNW) 10:18:22 .
JUGNU 20 Aug 10:12:16 10:15:24 15° 165° (SSE) 10:18:32 437.505
O/OREOS (USA 219) 20 Aug 10:22:25 10:26:39 44° 292° (WNW) 10:30:56 437.305
UNISAT 6 20 Aug 10:27:26 10:31:48 69° 259° (W) 10:36:06 437.425
FO-29 20 Aug 10:30:09 10:37:25 43° 261° (W) 10:44:11 435.910
EO-88 20 Aug 10:31:25 10:34:50 37° 99° (E) 10:38:15 145.990 - 145.960
NO-84 20 Aug 10:36:02 10:38:44 23° 234° (SW) 10:41:36 435.350 FM
RS-15 20 Aug 10:38:32 10:49:47 47° 108° (ESE) 11:01:15 29.354- 29.394
ZACube-1 20 Aug 10:40:17 10:42:16 13° 292° (WNW) 10:44:16 437.345
PRISM 20 Aug 10:46:18 10:50:23 57° 260° (W) 10:54:29 437.425
ISS 20 Aug 10:57:52 11:00:42 26° 322° (NW) 11:03:31 437.550
TIGRISAT 20 Aug 11:03:29 11:07:13 27° 263° (W) 11:10:54 435.000
nSIGHT-1 20 Aug 11:07:33 11:10:05 20° 324° (NW) 11:12:36 .
Max Valier Satellite 20 Aug 11:09:17 11:12:48 42° 285° (WNW) 11:16:19 145.860
NANOSAT C BR1 20 Aug 11:10:51 11:12:30 12° 67° (ENE) 11:14:09 145.865
DELFI C3 20 Aug 11:13:47 11:17:16 30° 287° (WNW) 11:20:44 145.870
POLYITAN 1 20 Aug 11:14:00 11:16:26 15° 69° (ENE) 11:18:52 437.675
QB50P2 20 Aug 11:27:56 11:31:23 25° 71° (ENE) 11:34:50 145.880/145.840
EO-79 20 Aug 11:29:01 11:32:22 23° 71° (ENE) 11:35:42 145.935-145.965
AIST 2D 20 Aug 11:34:17 11:37:44 73° 77° (ENE) 11:41:12 435.315
M-CUBED/EXP-1 PRIME 20 Aug 11:44:59 11:49:21 75° 254° (WSW) 11:53:58 437.505
DUCHIFAT 1 20 Aug 11:59:12 12:03:08 42° 74° (ENE) 12:07:04 145.980
JUGNU 20 Aug 11:59:17 12:03:47 22° 175° (S) 12:08:16 437.505
LO-87 20 Aug 12:03:28 12:06:59 73° 102° (ESE) 12:10:29 145.935 - 145.965
BUGSAT 1 20 Aug 12:04:57 12:06:14 11° 68° (ENE) 12:07:32 437.445
EO-88 20 Aug 12:07:30 12:08:06 10° 292° (WNW) 12:08:42 145.990 - 145.960
ESTCUBE 1 20 Aug 12:40:14 12:44:45 73° 285° (WNW) 12:49:16 437.505/2401.250
NANOSAT C BR1 20 Aug 12:43:47 12:47:46 43° 261° (W) 12:51:46 145.865
POLYITAN 1 20 Aug 12:48:04 12:51:53 34° 262° (W) 12:55:43 437.675
Oscar 19 20 Aug 12:48:06 12:51:42 20° 67° (ENE) 12:55:19 437.125/150
VELOX 1 20 Aug 12:50:29 12:54:03 24° 96° (E) 12:57:35 145.980
RS-15 20 Aug 12:50:34 13:02:11 48° 307° (NW) 13:14:01 29.354- 29.394
SPROUT 20 Aug 13:02:38 13:06:40 43° 99° (E) 13:10:43 437.525
QB50P2 20 Aug 13:03:58 13:07:05 20° 264° (W) 13:10:13 145.880/145.840
EO-79 20 Aug 13:04:44 13:07:59 22° 264° (W) 13:11:15 145.935-145.965
BUGSAT 1 20 Aug 13:37:14 13:41:10 44° 260° (W) 13:45:05 437.445
DUCHIFAT 1 20 Aug 13:37:28 13:38:56 12° 267° (W) 13:40:24 145.980
JUGNU 20 Aug 13:47:42 13:52:12 22° 185° (S) 13:56:41 437.505
AO-85 20 Aug 13:53:42 13:55:04 11° 50° (NE) 13:56:28 145.980
Gurwin Techsat 1B 20 Aug 13:54:41 13:59:54 60° 74° (ENE) 14:05:09 435.225
SRMSAT 20 Aug 13:57:55 14:02:00 19° 170° (S) 14:06:04 437.500
AO-7 20 Aug 13:57:57 14:02:47 17° 56° (NE) 14:07:35 .
UKube-1 20 Aug 14:09:29 14:13:23 32° 99° (E) 14:17:14 .
BEESAT 3 20 Aug 14:24:17 14:27:49 30° 57° (ENE) 14:31:17 437.485
Oscar 19 20 Aug 14:25:52 14:30:41 40° 261° (W) 14:35:30 437.125/150
VELOX 1 20 Aug 14:26:51 14:30:21 23° 290° (WNW) 14:33:50 145.980
DX 1 20 Aug 14:29:33 14:33:55 85° 283° (WNW) 14:38:14 434.975-435.025
50 SAT 20 Aug 14:30:47 14:33:56 39° 285° (WNW) 14:37:05 437.505
BEESAT 2 20 Aug 14:37:47 14:39:59 14° 51° (NE) 14:42:10 435.950
SPROUT 20 Aug 14:40:24 14:42:08 12° 293° (WNW) 14:43:52 437.525
ITUPSAT 1 20 Aug 15:01:24 15:02:55 11° 93° (E) 15:04:25 437.325
YUBILEINY 20 Aug 15:02:42 15:08:53 22° 83° (E) 15:15:02 435.215
RS-15 20 Aug 15:12:42 15:18:55 15° 336° (NNW) 15:25:08 29.354- 29.394
AO-85 20 Aug 15:31:22 15:35:47 70° 244° (WSW) 15:40:33 145.980
JUGNU 20 Aug 15:37:25 15:40:34 15° 195° (SSW) 15:43:42 437.505
Gurwin Techsat 1B 20 Aug 15:37:49 15:40:09 13° 267° (W) 15:42:29 435.225
ITAMSAT 1 20 Aug 15:43:48 15:48:59 72° 75° (ENE) 15:54:10 435.822/435.867
SRMSAT 20 Aug 15:45:57 15:50:33 24° 180° (S) 15:55:09 437.500
AO-7 20 Aug 15:45:59 15:54:22 89° 71° (ENE) 16:02:47 .
UKube-1 20 Aug 15:46:19 15:49:05 17° 292° (WNW) 15:51:51 .
MOZHAYETS 4 20 Aug 15:50:38 15:54:55 38° 98° (E) 15:59:13
BEESAT 20 Aug 16:02:15 16:06:58 61° 101° (ESE) 16:11:40 436.000
BEESAT 3 20 Aug 16:02:37 16:05:05 16° 251° (WSW) 16:07:31 437.485
CUBESAT XI-V 20 Aug 16:11:57 16:13:09 11° 92° (E) 16:14:20 437.345
BEESAT 2 20 Aug 16:14:06 16:17:55 41° 246° (WSW) 16:21:39 435.950
Tancredo 1 20 Aug 16:27:58 16:30:36 31° 40° (NE) 16:33:14 437.200
ITUPSAT 1 20 Aug 16:36:19 16:41:00 56° 286° (WNW) 16:45:40 437.325
YUBILEINY 20 Aug 16:56:07 17:04:50 65° 278° (W) 17:13:33 435.215
DOVE 4 20 Aug 17:06:47 17:11:31 34° 72° (ENE) 17:16:12 437.250
XW-2F 20 Aug 17:26:51 17:27:45 11° 68° (ENE) 17:28:39 145.980 - 146.000
ITAMSAT 1 20 Aug 17:28:46 17:28:50 10° 268° (W) 17:28:55 435.822/435.867
MOZHAYETS 4 20 Aug 17:28:48 17:31:44 17° 292° (WNW) 17:34:39
ISS 20 Aug 17:28:50 17:31:53 35° 40° (NE) 17:34:54 437.550
SRMSAT 20 Aug 17:35:03 17:39:07 19° 190° (S) 17:43:11 437.500
RS-15 20 Aug 17:35:28 17:39:40 12° 16° (NNE) 17:43:48 29.354- 29.394
nSIGHT-1 20 Aug 17:37:41 17:40:49 47° 41° (NE) 17:43:56 .
KKS-1 20 Aug 17:41:31 17:45:49 50° 100° (E) 17:50:06 437.445
BEESAT 20 Aug 17:42:40 17:44:09 11° 295° (WNW) 17:45:38 436.000
AO-7 20 Aug 17:43:44 17:47:52 14° 267° (W) 17:52:04 .
CUBESAT XI-V 20 Aug 17:46:09 17:50:47 57° 285° (WNW) 17:55:22 437.345
HO-68 20 Aug 17:49:59 17:52:58 13° 58° (ENE) 17:55:56 435.675
CUTE-I 20 Aug 17:50:37 17:55:09 29° 69° (ENE) 17:59:40 437.470
KAITUO 1B 20 Aug 17:50:54 17:53:27 18° 71° (ENE) 17:56:00 145.475/437.950
Tancredo 1 20 Aug 18:04:12 18:05:32 13° 233° (SW) 18:06:53 437.200
LilacSat-2 20 Aug 18:10:36 18:14:14 50° 76° (ENE) 18:17:55 437.200
XW-2D 20 Aug 18:15:14 18:18:53 56° 76° (ENE) 18:22:35 145.860 - 145.880
STARS 20 Aug 18:21:05 18:25:22 56° 101° (E) 18:29:38 437.465
NUDT-PHONESAT 20 Aug 18:23:04 18:26:35 47° 75° (ENE) 18:30:07 437.300
XW-2B 20 Aug 18:26:12 18:29:55 78° 78° (ENE) 18:33:41 145.730 - 145.750
DOVE 4 20 Aug 18:44:56 18:49:07 24° 265° (W) 18:53:18 437.250
XW-2C 20 Aug 18:45:21 18:49:00 52° 261° (W) 18:52:41 145.795 - 145.815
XW-2F 20 Aug 18:58:00 19:01:27 37° 262° (W) 19:04:57 145.980 - 146.000
O/OREOS (USA 219) 20 Aug 18:59:23 19:01:28 13° 60° (ENE) 19:03:33 437.305
ISS 20 Aug 19:06:12 19:08:05 15° 233° (SW) 19:09:59 437.550
CUTE 1.7 + AOD 2 20 Aug 19:11:39 19:15:36 41° 74° (ENE) 19:19:37 437.475
AAUSAT CUBESAT 2 20 Aug 19:14:24 19:15:16 11° 67° (ENE) 19:16:07 437.432
UWE-3 20 Aug 19:15:35 19:17:12 12° 68° (ENE) 19:18:48 435.000/436.395/437.385
nSIGHT-1 20 Aug 19:16:09 19:16:49 10° 235° (SW) 19:17:30 .
CUBEBUG 2 20 Aug 19:20:06 19:23:41 26° 72° (ENE) 19:27:11 437.445
KKS-1 20 Aug 19:20:15 19:21:53 12° 294° (WNW) 19:23:30 437.445
KAITUO 1B 20 Aug 19:24:23 19:27:15 21° 264° (W) 19:30:08 145.475/437.950
XW-2A 20 Aug 19:30:10 19:33:04 29° 74° (ENE) 19:36:00 145.665 - 145.685
CUTE-I 20 Aug 19:30:28 19:35:03 29° 263° (W) 19:39:39 437.470
HO-68 20 Aug 19:32:27 19:39:37 85° 74° (ENE) 19:46:48 435.675
RS-15 20 Aug 19:46:31 19:57:22 37° 48° (NE) 20:07:40 29.354- 29.394
STRAND 1 20 Aug 19:48:56 19:53:26 31° 98° (E) 19:57:56 437.568
ZACube-1 20 Aug 19:54:35 19:57:27 18° 70° (ENE) 20:00:19 437.345
SEEDS 20 Aug 19:59:46 20:03:57 80° 258° (WSW) 20:08:11 437.485
STARS 20 Aug 20:00:30 20:01:10 10° 295° (WNW) 20:01:50 437.465
AO-73 20 Aug 20:15:09 20:18:44 29° 72° (ENE) 20:22:17 145.935
O/OREOS (USA 219) 20 Aug 20:36:43 20:41:07 50° 255° (WSW) 20:45:32 437.305
